FW9061 Weather Reports


time (UTC)temp
C
wind
direction
speed
KPH
gust
KPH
rain 1hr
cm
rain 24hr
cm
rain mn
cm
humidity
%
barometer
mb
20260504001718 27 128 0.0 3.2 0.00 0.00 0.00 34 1009.4
20260504001214 27 130 0.0 1.6 0.00 0.00 0.00 33 1009.8
20260504000711 27 138 1.6 4.8 0.00 0.00 0.00 32 1009.8
20260504000208 27 121 0.0 1.6 0.00 0.00 0.00 33 1009.8
20260503235706 27 120 0.0 1.6 0.00 0.00 0.00 33 1009.9
20260503235203 27 128 1.6 1.6 0.00 0.00 0.00 33 1009.9
20260503234701 27 147 0.0 1.6 0.00 0.00 0.00 34 1009.9
20260503234159 27 124 0.0 3.2 0.00 0.00 0.00 33 1010.0
20260503233655 27 125 0.0 1.6 0.00 0.00 0.00 34 1010.0
20260503233151 28 133 0.0 1.6 0.00 0.00 0.00 34 1010.1
20260503232648 28 118 0.0 0.0 0.00 0.00 0.00 34 1010.0
20260503232145 28 152 0.0 6.4 0.00 0.00 0.00 33 1010.2
20260503231644 27 149 1.6 3.2 0.00 0.00 0.00 34 1010.4
20260503231139 28 168 1.6 4.8 0.00 0.00 0.00 34 1010.4
20260503230636 28 122 0.0 4.8 0.00 0.00 0.00 35 1010.5
20260503230134 28 123 1.6 1.6 0.00 0.00 0.00 31 1010.5
20260503225631 28 138 0.0 1.6 0.00 0.00 0.00 31 1010.6
20260503225131 27 138 0.0 1.6 0.00 0.00 0.00 32 1010.8
20260503224628 27 142 0.0 1.6 0.00 0.00 0.00 32 1010.7
20260503224126 27 154 0.0 4.8 0.00 0.00 0.00 31 1010.8
20260503223624 27 139 1.6 6.4 0.00 0.00 0.00 32 1010.8
20260503223120 27 252 3.2 4.8 0.00 0.00 0.00 33 1011.0
20260503222617 27 168 0.0 6.4 0.00 0.00 0.00 34 1010.9
20260503222115 27 216 3.2 4.8 0.00 0.00 0.00 33 1011.1
20260503221613 27 146 0.0 3.2 0.00 0.00 0.00 34 1011.1
20260503221110 27 135 0.0 1.6 0.00 0.00 0.00 33 1011.3
20260503220607 27 121 3.2 4.8 0.00 0.00 0.00 34 1011.3
20260503220104 27 246 3.2 3.2 0.00 0.00 0.00 33 1011.2
20260503215601 27 141 1.6 6.4 0.00 0.00 0.00 33 1011.2
20260503215057 27 153 1.6 1.6 0.00 0.00 0.00 31 1011.2
20260503214556 26 122 0.0 1.6 0.00 0.00 0.00 32 1011.3
20260503214052 26 143 1.6 4.8 0.00 0.00 0.00 31 1011.5
20260503213551 26 139 0.0 3.2 0.00 0.00 0.00 33 1011.4
20260503213047 26 177 1.6 4.8 0.00 0.00 0.00 32 1011.5
20260503212544 26 120 1.6 1.6 0.00 0.00 0.00 35 1011.5
20260503212042 26 114 1.6 1.6 0.00 0.00 0.00 33 1011.5
20260503211539 26 128 0.0 4.8 0.00 0.00 0.00 34 1011.8
20260503211034 26 143 3.2 3.2 0.00 0.00 0.00 35 1011.7
20260503210531 26 190 1.6 4.8 0.00 0.00 0.00 34 1011.7
20260503210027 26 158 1.6 3.2 0.00 0.00 0.00 35 1011.6
20260503205524 26 64 3.2 4.8 0.00 0.00 0.00 36 1011.8
20260503205020 26 110 1.6 3.2 0.00 0.00 0.00 36 1012.0
20260503204517 25 133 0.0 3.2 0.00 0.00 0.00 36 1011.8
20260503204014 25 251 3.2 4.8 0.00 0.00 0.00 36 1012.1
20260503203511 25 141 0.0 6.4 0.00 0.00 0.00 37 1012.0
20260503203008 26 355 3.2 6.4 0.00 0.00 0.00 36 1012.2
20260503202506 26 219 0.0 1.6 0.00 0.00 0.00 34 1012.2
20260503202004 26 131 1.6 1.6 0.00 0.00 0.00 35 1012.1
20260503201501 26 127 0.0 3.2 0.00 0.00 0.00 35 1012.4
20260503200959 25 165 0.0 1.6 0.00 0.00 0.00 35 1012.2
20260503200455 25 115 0.0 3.2 0.00 0.00 0.00 35 1012.4
20260503195951 25 128 1.6 3.2 0.00 0.00 0.00 35 1012.3
20260503195449 25 129 3.2 3.2 0.00 0.00 0.00 37 1012.5
20260503194945 26 167 1.6 3.2 0.00 0.00 0.00 36 1012.6
20260503194443 26 175 0.0 1.6 0.00 0.00 0.00 37 1012.5
20260503193938 26 143 1.6 1.6 0.00 0.00 0.00 37 1012.6
20260503193433 25 135 1.6 3.2 0.00 0.00 0.00 37 1012.6
20260503192929 25 124 0.0 4.8 0.00 0.00 0.00 38 1012.8
20260503192426 25 126 1.6 1.6 0.00 0.00 0.00 36 1012.8
20260503191921 25 84 3.2 4.8 0.00 0.00 0.00 38 1012.7
20260503191420 25 185 0.0 1.6 0.00 0.00 0.00 40 1013.0
20260503190915 25 125 0.0 1.6 0.00 0.00 0.00 40 1013.1
20260503190413 25 130 0.0 1.6 0.00 0.00 0.00 40 1013.0
20260503185909 25 136 1.6 3.2 0.00 0.00 0.00 41 1013.2
20260503185406 24 143 1.6 1.6 0.00 0.00 0.00 40 1013.3
20260503184905 24 121 0.0 4.8 0.00 0.00 0.00 40 1013.3
20260503184402 23 118 0.0 4.8 0.00 0.00 0.00 41 1013.2
20260503183858 23 130 0.0 4.8 0.00 0.00 0.00 43 1013.4
20260503183355 23 116 1.6 1.6 0.00 0.00 0.00 43 1013.3
20260503182852 23 103 0.0 3.2 0.00 0.00 0.00 42 1013.4
20260503182351 23 137 0.0 1.6 0.00 0.00 0.00 43 1013.6
20260503181848 23 118 1.6 1.6 0.00 0.00 0.00 43 1013.5
20260503181345 23 128 0.0 1.6 0.00 0.00 0.00 44 1013.6
20260503180841 23 130 0.0 1.6 0.00 0.00 0.00 44 1013.5
20260503180340 23 133 0.0 1.6 0.00 0.00 0.00 45 1013.5
20260503175836 23 123 0.0 1.6 0.00 0.00 0.00 47 1013.5
20260503175334 22 136 0.0 1.6 0.00 0.00 0.00 47 1013.5
20260503174834 22 130 0.0 1.6 0.00 0.00 0.00 49 1013.6
20260503174333 22 122 0.0 1.6 0.00 0.00 0.00 50 1013.6
20260503173828 21 131 0.0 3.2 0.00 0.00 0.00 52 1013.6
20260503173325 21 111 1.6 1.6 0.00 0.00 0.00 51 1013.5
20260503172821 21 125 0.0 1.6 0.00 0.00 0.00 52 1013.7
20260503172319 21 134 0.0 1.6 0.00 0.00 0.00 52 1013.7
20260503171815 20 134 0.0 1.6 0.00 0.00 0.00 52 1013.7
20260503171312 20 128 0.0 1.6 0.00 0.00 0.00 54 1013.8
20260503170809 20 122 0.0 1.6 0.00 0.00 0.00 53 1013.7
20260503170306 20 123 0.0 0.0 0.00 0.00 0.00 54 1013.6
20260503150658 15 118 0.0 0.0 0.00 0.00 0.00 66 1013.9
20260503150154 15 118 0.0 0.0 0.00 0.00 0.00 66 1013.7
20260503140118 15 120 0.0 0.0 0.00 0.00 0.00 64 1013.8
20260503131048 13 133 0.0 0.0 0.00 0.00 0.00 71 1013.8
20260503130545 13 132 0.0 1.6 0.00 0.00 0.00 71 1013.7
20260503110435 14 113 0.0 0.0 0.00 0.00 0.00 63 1014.0
20260503090326 16 124 0.0 0.0 0.00 0.00 0.00 53 1014.1
20260503081254 16 122 0.0 0.0 0.00 0.00 0.00 51 1014.0
20260503080749 16 125 0.0 0.0 0.00 0.00 0.00 51 1014.1
20260503080247 16 124 0.0 0.0 0.00 0.00 0.00 51 1014.1
20260503072724 17 136 0.0 1.6 0.00 0.00 0.00 50 1013.9
20260503072220 16 136 0.0 1.6 0.00 0.00 0.00 50 1013.9
20260503071717 17 136 0.0 0.0 0.00 0.00 0.00 50 1014.0
20260503071214 17 136 0.0 0.0 0.00 0.00 0.00 50 1014.0
20260503070710 17 137 0.0 1.6 0.00 0.00 0.00 50 1014.1
20260503070209 17 136 0.0 0.0 0.00 0.00 0.00 50 1014.0
20260503060133 17 134 0.0 0.0 0.00 0.00 0.00 49 1013.8
20260503055125 17 132 0.0 0.0 0.00 0.00 0.00 48 1013.9
20260503054620 17 122 0.0 0.0 0.00 0.00 0.00 49 1013.8
20260503054117 17 122 0.0 0.0 0.00 0.00 0.00 49 1013.8
20260503053615 17 126 0.0 0.0 0.00 0.00 0.00 48 1013.8
20260503053114 17 124 0.0 1.6 0.00 0.00 0.00 49 1013.9
20260503052610 17 116 0.0 0.0 0.00 0.00 0.00 49 1014.0
20260503052106 17 116 0.0 0.0 0.00 0.00 0.00 49 1013.7
20260503051601 17 134 0.0 0.0 0.00 0.00 0.00 49 1013.8
20260503051100 17 118 0.0 0.0 0.00 0.00 0.00 49 1013.7
20260503050555 17 126 0.0 0.0 0.00 0.00 0.00 49 1013.8
20260503050053 17 128 0.0 1.6 0.00 0.00 0.00 48 1013.7
20260503045550 17 119 0.0 0.0 0.00 0.00 0.00 48 1013.8
20260503045047 17 119 0.0 0.0 0.00 0.00 0.00 48 1014.0
20260503044544 18 121 0.0 0.0 0.00 0.00 0.00 49 1013.8
20260503044041 18 120 0.0 1.6 0.00 0.00 0.00 48 1013.6
20260503043537 18 120 0.0 0.0 0.00 0.00 0.00 48 1013.8
20260503043034 18 126 0.0 0.0 0.00 0.00 0.00 48 1013.7
20260503042531 18 131 0.0 1.6 0.00 0.00 0.00 48 1013.6
20260503042027 18 121 0.0 0.0 0.00 0.00 0.00 49 1013.6
20260503041524 18 125 0.0 1.6 0.00 0.00 0.00 48 1013.8
20260503041022 18 114 0.0 0.0 0.00 0.00 0.00 48 1013.6
20260503040519 18 113 0.0 0.0 0.00 0.00 0.00 49 1013.6
20260503040016 18 114 0.0 0.0 0.00 0.00 0.00 49 1013.3
20260503035513 18 112 0.0 0.0 0.00 0.00 0.00 49 1013.4
20260503035011 18 115 0.0 0.0 0.00 0.00 0.00 51 1013.3
20260503034508 18 114 0.0 0.0 0.00 0.00 0.00 50 1013.3
20260503034004 18 116 0.0 0.0 0.00 0.00 0.00 50 1013.3
20260503033502 18 122 0.0 0.0 0.00 0.00 0.00 51 1013.0
20260503033000 18 123 0.0 0.0 0.00 0.00 0.00 53 1012.8
20260503032458 18 124 0.0 0.0 0.00 0.00 0.00 52 1012.8
20260503031955 18 125 0.0 0.0 0.00 0.00 0.00 52 1012.7
20260503031453 19 117 0.0 0.0 0.00 0.00 0.00 51 1012.6
20260503030949 19 113 0.0 0.0 0.00 0.00 0.00 49 1012.7
20260503030446 19 113 0.0 1.6 0.00 0.00 0.00 49 1012.7
20260503025943 19 114 0.0 0.0 0.00 0.00 0.00 48 1012.7
20260503025440 20 115 0.0 0.0 0.00 0.00 0.00 48 1012.6
20260503024937 20 116 0.0 0.0 0.00 0.00 0.00 48 1012.5
20260503024434 20 114 0.0 1.6 0.00 0.00 0.00 48 1012.6
20260503023931 20 105 0.0 3.2 0.00 0.00 0.00 47 1012.5
20260503023428 20 91 1.6 1.6 0.00 0.00 0.00 48 1012.2
20260503022925 20 116 0.0 3.2 0.00 0.00 0.00 47 1012.4
20260503022420 20 113 0.0 1.6 0.00 0.00 0.00 47 1012.4
20260503021916 20 120 0.0 1.6 0.00 0.00 0.00 47 1012.5
20260503021412 21 105 1.6 1.6 0.00 0.00 0.00 46 1012.6
20260503020909 21 116 0.0 1.6 0.00 0.00 0.00 47 1012.5
20260503020407 21 118 1.6 1.6 0.00 0.00 0.00 46 1012.6
20260503015903 21 125 0.0 1.6 0.00 0.00 0.00 45 1012.7
20260503015400 21 108 0.0 3.2 0.00 0.00 0.00 44 1012.8
20260503014856 21 82 1.6 1.6 0.00 0.00 0.00 44 1012.8
20260503014354 21 104 1.6 3.2 0.00 0.00 0.00 43 1012.6
20260503013852 21 91 0.0 3.2 0.00 0.00 0.00 44 1012.7
20260503013348 22 117 1.6 3.2 0.00 0.00 0.00 44 1012.6
20260503012845 22 107 3.2 3.2 0.00 0.00 0.00 44 1012.4
20260503012343 22 94 1.6 3.2 0.00 0.00 0.00 43 1012.6
20260503011840 22 97 1.6 3.2 0.00 0.00 0.00 43 1012.5
20260503011337 22 141 1.6 3.2 0.00 0.00 0.00 43 1012.7
20260503010833 22 121 3.2 3.2 0.00 0.00 0.00 43 1012.5
20260503010330 22 130 0.0 3.2 0.00 0.00 0.00 43 1012.7
20260503005827 22 107 1.6 3.2 0.00 0.00 0.00 45 1013.0
20260503005324 22 102 1.6 4.8 0.00 0.00 0.00 44 1012.7
20260503004820 22 109 1.6 3.2 0.00 0.00 0.00 44 1012.5
20260503004318 22 130 1.6 3.2 0.00 0.00 0.00 44 1012.7
20260503003816 23 125 1.6 1.6 0.00 0.00 0.00 43 1012.7
20260503003312 23 126 1.6 3.2 0.00 0.00 0.00 44 1012.8
20260503002809 23 168 1.6 1.6 0.00 0.00 0.00 43 1012.6
20260503002306 23 119 0.0 1.6 0.00 0.00 0.00 42 1012.8